Location: Newark
(41.6500°N, 71.4833°W)
Time: 18:45:40
(UTC+00:00)

Transit 2A Rocket - Pass Details

Date: 01 February 2020
Orbit: 592 x 911 km, 66.7° (Epoch: 19 February)

Event Time Altitude Azimuth Distance (km) Brightness Sun altitude
Rises 17:56:59 0° 320° (NW) 3,084 7.8 29.8°
Reaches altitude 10° 17:59:24 10° 311° (NW) 2,213 7.3 29.6°
Maximum altitude 18:03:55 33° 248° (WSW) 1,262 7.0 29.4°
Drops below altitude 10° 18:08:47 10° 185° (S) 2,392 9.1 29.1°
Sets 18:11:30 0° 177° (S) 3,371 9.3 28.9°
